Location: Unspecified
(0.0000°N, 0.0000°E)
Time: 05:32:29
(UTC+00:00)

Envisat - Pass Details

Date: 05 August 2020
Orbit: 764 x 766 km, 98.1° (Epoch: 13 August)

Event Time Altitude Azimuth Distance (km) Brightness Sun altitude
Rises 05:15:43 0° 28° (NNE) 3,214 7.0 -12.0°
Reaches altitude 10° 05:18:11 10° 36° (NE) 2,291 6.3 -11.4°
Maximum altitude 05:22:48 36° 102° (ESE) 1,190 4.6 -10.3°
Drops below altitude 10° 05:27:25 10° 168° (SSE) 2,301 5.4 -9.2°
Sets 05:29:53 0° 176° (S) 3,229 6.1 -8.6°
